Nassau, Bahamas

2:31 AM EDT on October 19, 2017 (GMT -0400)
Nassau

Weather History for 78073 - August, 2012

Change the Weather History Date:

Thursday, August 23, 2012

  Actual Average Record
Temperature  
Mean Temperature 84 °F -  
Max Temperature 89 °F 88 °F - ()
Min Temperature 79 °F 74 °F - ()
Cooling Degree Days 19    
Growing Degree Days 34 (Base 50)    
Moisture  
Dew Point 75 °F    
Average Humidity 71    
Maximum Humidity 84    
Minimum Humidity 54    
Precipitation  
Precipitation 0.00 in 0.24 in - ()
Sea Level Pressure  
Sea Level Pressure 30.04 in    
Wind  
Wind Speed 5 mph ()    
Max Wind Speed 15 mph    
Max Gust Speed -    
Visibility 6.7 miles    
Events Thunderstorm    
T = Trace of Precipitation, MM = Missing Value Source: Averaged Metar Reports

Daily Weather History Graph

Daily Weather History Graph

Search for Another Location

Airport or City:

Trip Planner

Search our weather history database for the weather conditions in past years. The results will help you decide how hot, cold, wet, or windy it might be!

Date:

Astronomy

Aug. 23, 2012 Rise Set
Actual Time 6:47 AM EDT 7:36 PM EDT
Civil Twilight 6:23 AM EDT 8:00 PM EDT
Nautical Twilight 5:56 AM EDT 8:28 PM EDT
Astronomical Twilight 5:27 AM EDT 8:56 PM EDT
Moon 12:43 PM EDT (8/23) 11:53 PM EDT (8/23)
Length of Visible Light 13h 36m
Length of Day
12h 49m
Waxing Crescent, 40% of the Moon is Illuminated
Aug 23
Waxing Crescent
Aug 24
First Quarter
Aug 31
Full
Sep 8
Last Quarter
Sep 15
New

Hourly Weather History & Observations

Time (EDT) Temp. Heat Index Dew Point Humidity Pressure Visibility Wind Dir Wind Speed Gust Speed Precip Events Conditions
12:00 AM 82.4 °F 89.5 °F 75.2 °F 79% 30.08 in 6.2 mi Calm Calm - N/A   Scattered Clouds
1:00 AM 82.4 °F 89.5 °F 75.2 °F 79% 30.06 in 6.2 mi East 2.3 mph - N/A   Scattered Clouds
2:00 AM 82 °F - 74 °F 72% 30.06 in 8 mi ENE 2.3 mph - -   Scattered Clouds
2:00 AM 82.4 °F 89.5 °F 75.2 °F 79% 30.06 in 6.2 mi ENE 2.3 mph - N/A   Scattered Clouds
3:00 AM 82.4 °F 89.5 °F 75.2 °F 79% 30.05 in 6.2 mi ENE 2.3 mph - N/A   Scattered Clouds
4:00 AM 82.4 °F 88.2 °F 73.4 °F 74% 30.05 in 6.2 mi NE 2.3 mph - N/A   Scattered Clouds
5:00 AM 81 °F - 75 °F 78% 30.05 in 8 mi Calm Calm - -   Scattered Clouds
5:00 AM 80.6 °F 86.2 °F 75.2 °F 84% 30.04 in 6.2 mi Calm Calm - N/A   Scattered Clouds
7:00 AM 80.6 °F 85.4 °F 73.4 °F 79% 30.04 in 6.2 mi NE 3.5 mph - N/A   Mostly Cloudy
8:00 AM 84 °F - 74 °F 65% 30.06 in 9 mi East 5.8 mph - -   Scattered Clouds
8:00 AM 84.2 °F 90.9 °F 73.4 °F 70% 30.05 in 6.2 mi East 5.8 mph - N/A   Mostly Cloudy
9:00 AM 86.0 °F 93.4 °F 73.4 °F 66% 30.06 in 6.2 mi ENE 9.2 mph - N/A   Mostly Cloudy
10:00 AM 86.0 °F 95.1 °F 75.2 °F 70% 30.07 in 6.2 mi ENE 11.5 mph - N/A   Partly Cloudy
11:00 AM 88 °F - 78 °F 64% 30.07 in 9 mi ENE 10.4 mph - -   Scattered Clouds
11:00 AM 87.8 °F 99.7 °F 77.0 °F 70% 30.07 in 6.2 mi ENE 10.4 mph - N/A   Partly Cloudy
12:00 PM 87.8 °F 95.6 °F 73.4 °F 62% 30.06 in 6.2 mi East 9.2 mph - N/A   Scattered Clouds
1:00 PM 87.8 °F 97.6 °F 75.2 °F 66% 30.05 in 6.2 mi East 9.2 mph - N/A   Scattered Clouds
2:00 PM 89 °F - 74 °F 54% 30.05 in 9 mi ENE 11.5 mph - -   Partly Cloudy
2:00 PM 89.6 °F 99.8 °F 75.2 °F 62% 30.05 in 6.2 mi ENE 11.5 mph - N/A   Scattered Clouds
3:00 PM 87.8 °F 95.6 °F 73.4 °F 62% 30.05 in 6.2 mi NE 11.5 mph - N/A   Scattered Clouds
4:00 PM 87.8 °F 95.6 °F 73.4 °F 62% 30.04 in 6.2 mi NE 15.0 mph - N/A   Scattered Clouds
5:00 PM 86 °F - 79 °F 75% 30.03 in 8 mi ENE 11.5 mph - -   Scattered Clouds
5:00 PM 86.0 °F 96.9 °F 77.0 °F 74% 30.03 in 6.2 mi ENE 11.5 mph - N/A   Partly Cloudy
6:00 PM 86.0 °F 93.4 °F 73.4 °F 66% 30.01 in 6.2 mi ENE 13.8 mph - N/A   Partly Cloudy
7:00 PM 86.0 °F 93.4 °F 73.4 °F 66% 30.01 in 6.2 mi ENE 11.5 mph - N/A   Partly Cloudy
8:00 PM 86.0 °F 93.4 °F 73.4 °F 66% 30.01 in 6.2 mi East 9.2 mph - N/A   Scattered Clouds
9:00 PM 84.2 °F 92.3 °F 75.2 °F 74% 30.02 in 6.2 mi East 4.6 mph - N/A   Scattered Clouds
10:00 PM 82.4 °F 89.5 °F 75.2 °F 79% 30.02 in 6.2 mi ENE 3.5 mph - N/A Thunderstorm Thunderstorm
11:00 PM 84 °F - 76 °F 70% 30.01 in 8 mi NE 11.5 mph - - Thunderstorm Thunderstorm
11:00 PM 84.2 °F 92.3 °F 75.2 °F 74% 30.01 in 6.2 mi NE 11.5 mph - N/A Thunderstorm Thunderstorm